Weather History for Dumas, TX

Change the Weather History Date:

Friday, January 10, 2014

  Actual Average (KBGD) Record (KBGD)
Temperature  
Mean Temperature 40 °F 38 °F  
Max Temperature 53 °F 51 °F 73 °F (1990)
Min Temperature 27 °F 26 °F -5 °F (1962)
Degree Days  
Heating Degree Days 25 27  
Month to date heating degree days 274  
Since 1 July heating degree days 1811  
Cooling Degree Days 0 0  
Month to date cooling degree days 0  
Year to date cooling degree days 0  
Moisture  
Dew Point 14 °F    
Average Humidity 35    
Maximum Humidity 56    
Minimum Humidity 17    
Precipitation  
Precipitation 0.00 in 0.01 in 0.71 in (1991)
Month to date precipitation 0.16  
Year to date precipitation 0.16  
Snow  
Snow 0.00 in - 3.70 in (1991)
Month to date snowfall  
Since 1 July snowfall  
Snow Depth -    
Sea Level Pressure  
Sea Level Pressure 29.75 in    
Wind  
Wind Speed 14 mph (West)    
Max Wind Speed 23 mph    
Max Gust Speed 28 mph    
Visibility 10 miles    
Events      
T = Trace of Precipitation, MM = Missing Value Source: NWS Daily Summary

Daily Weather History Graph

Daily Weather History Graph

Search for Another Location

Airport:

Trip Planner

Search our weather history database for the weather conditions in past years. The results will help you decide how hot, cold, wet, or windy it might be!

Date:

Astronomy

Jan. 10, 2014 Rise Set
Actual Time 7:58 AM CST 5:53 PM CST
Civil Twilight 7:30 AM CST 6:21 PM CST
Nautical Twilight 6:58 AM CST 6:52 PM CST
Astronomical Twilight 6:27 AM CST 7:23 PM CST
Moon 1:55 PM CST (1/10) 3:11 AM CST (1/10)
Length of Visible Light 10h 50m
Length of Day
9h 54m
Waxing Gibbous, 75% of the Moon is Illuminated
Jan 10
Waxing Gibbous
Jan 15
Full
Jan 23
Last Quarter
Jan 30
New
Feb 6
First Quarter

Hourly Weather History & Observations

Time (CST) Temp. Windchill Dew Point Humidity Pressure Visibility Wind Dir Wind Speed Gust Speed Precip Events Conditions
12:15 AM 41.9 °F 34.0 °F 16.7 °F 36% 29.76 in 10.0 mi SW 16.1 mph - N/A   Clear
12:35 AM 41.2 °F 33.0 °F 16.7 °F 37% 29.76 in 10.0 mi SW 16.1 mph - N/A   Clear
12:55 AM 41.7 °F 34.4 °F 16.7 °F 36% 29.74 in 10.0 mi SW 13.8 mph - N/A   Clear
1:15 AM 41.0 °F 33.5 °F 17.2 °F 38% 29.74 in 10.0 mi SW 13.8 mph - N/A   Clear
1:35 AM 42.1 °F 34.5 °F 17.2 °F 37% 29.73 in 10.0 mi WSW 15.0 mph - N/A   Clear
1:55 AM 41.5 °F 35.0 °F 17.4 °F 38% 29.72 in 10.0 mi WSW 11.5 mph - N/A   Clear
2:15 AM 42.8 °F 34.8 °F 17.2 °F 36% 29.72 in 10.0 mi SW 17.3 mph - N/A   Clear
2:35 AM 42.8 °F 34.8 °F 16.7 °F 35% 29.72 in 10.0 mi SW 17.3 mph - N/A   Clear
2:55 AM 43.7 °F 35.7 °F 16.7 °F 34% 29.72 in 10.0 mi WSW 18.4 mph - N/A   Clear
3:15 AM 43.0 °F 35.4 °F 16.5 °F 34% 29.72 in 10.0 mi WSW 16.1 mph - N/A   Clear
3:35 AM 41.9 °F 33.4 °F 16.2 °F 35% 29.71 in 10.0 mi SW 18.4 mph - N/A   Clear
3:55 AM 41.5 °F 32.6 °F 15.4 °F 35% 29.71 in 10.0 mi WSW 19.6 mph 24.2 mph N/A   Clear
4:15 AM 40.3 °F 31.9 °F 15.4 °F 37% 29.71 in 10.0 mi WSW 16.1 mph - N/A   Clear
4:35 AM 38.1 °F 29.5 °F 15.3 °F 39% 29.69 in 10.0 mi WSW 15.0 mph - N/A   Clear
4:55 AM 36.5 °F 26.7 °F 15.3 °F 42% 29.69 in 10.0 mi WSW 17.3 mph - N/A   Clear
5:15 AM 37.6 °F 27.7 °F 14.9 °F 40% 29.69 in 10.0 mi WSW 18.4 mph - N/A   Clear
5:35 AM 37.2 °F 27.6 °F 14.9 °F 40% 29.69 in 10.0 mi WSW 17.3 mph - N/A   Clear
5:55 AM 36.7 °F 27.2 °F 14.9 °F 41% 29.69 in 10.0 mi WSW 16.1 mph - N/A   Clear
6:15 AM 37.0 °F 27.0 °F 14.5 °F 40% 29.68 in 10.0 mi WSW 18.4 mph - N/A   Clear
6:35 AM 34.9 °F 24.9 °F 14.7 °F 44% 29.68 in 10.0 mi WSW 16.1 mph - N/A   Clear
6:55 AM 34.3 °F 23.5 °F 14.9 °F 45% 29.69 in 10.0 mi WSW 18.4 mph - N/A   Clear
7:15 AM 34.7 °F 24.7 °F 14.9 °F 44% 29.69 in 10.0 mi WSW 16.1 mph - N/A   Clear
7:35 AM 34.7 °F 24.7 °F 15.1 °F 45% 29.70 in 10.0 mi West 16.1 mph - N/A   Clear
7:55 AM 34.2 °F 24.4 °F 15.3 °F 46% 29.71 in 10.0 mi WSW 15.0 mph - N/A   Clear
8:15 AM 33.6 °F 24.1 °F 15.4 °F 47% 29.71 in 10.0 mi West 13.8 mph - N/A   Clear
8:35 AM 32.7 °F 23.4 °F 15.8 °F 50% 29.72 in 10.0 mi West 12.7 mph - N/A   Clear
8:55 AM 33.8 °F 25.3 °F 16.7 °F 50% 29.76 in 10.0 mi NW 11.5 mph 17.3 mph N/A   Clear
9:15 AM 35.4 °F 27.3 °F 18.5 °F 50% 29.76 in 10.0 mi NW 11.5 mph - N/A   Clear
9:35 AM 39.9 °F 32.9 °F 19.8 °F 44% 29.75 in 10.0 mi NNW 11.5 mph - N/A   Clear
9:55 AM 42.3 °F 35.1 °F 20.1 °F 41% 29.76 in 10.0 mi NNW 13.8 mph 18.4 mph N/A   Clear
10:15 AM 43.3 °F 36.8 °F 19.4 °F 38% 29.77 in 10.0 mi North 12.7 mph - N/A   Clear
10:35 AM 43.7 °F 37.7 °F 18.5 °F 36% 29.78 in 10.0 mi North 11.5 mph - N/A   Clear
10:55 AM 44.1 °F 37.7 °F 18.0 °F 35% 29.78 in 10.0 mi NNW 12.7 mph - N/A   Clear
11:15 AM 44.6 °F 39.7 °F 18.1 °F 35% 29.77 in 10.0 mi NW 9.2 mph - N/A   Clear
11:35 AM 46.8 °F - 18.3 °F 32% 29.76 in 10.0 mi NW 9.2 mph - N/A   Clear
11:55 AM 48.9 °F - 16.5 °F 28% 29.75 in 10.0 mi NNW 15.0 mph 20.7 mph N/A   Clear
12:15 PM 49.6 °F - 12.2 °F 22% 29.74 in 10.0 mi NNW 16.1 mph 23.0 mph N/A   Clear
12:35 PM 50.4 °F - 10.8 °F 20% 29.73 in 10.0 mi NNW 17.3 mph 21.9 mph N/A   Clear
12:55 PM 50.7 °F - 10.2 °F 20% 29.73 in 10.0 mi NNW 16.1 mph - N/A   Clear
1:15 PM 50.7 °F - 10.6 °F 20% 29.72 in 10.0 mi NNW 12.7 mph - N/A   Clear
1:35 PM 51.1 °F - 10.9 °F 20% 29.72 in 10.0 mi NW 15.0 mph 23.0 mph N/A   Clear
1:55 PM 52.0 °F - 11.3 °F 20% 29.71 in 10.0 mi NW 13.8 mph 23.0 mph N/A   Clear
2:15 PM 52.3 °F - 11.5 °F 20% 29.70 in 10.0 mi West 15.0 mph 21.9 mph N/A   Clear
2:35 PM 53.1 °F - 9.1 °F 17% 29.71 in 10.0 mi WNW 19.6 mph 27.6 mph N/A   Clear
2:55 PM 53.1 °F - 9.0 °F 17% 29.70 in 10.0 mi WNW 18.4 mph - N/A   Clear
3:15 PM 53.8 °F - 10.0 °F 17% 29.70 in 10.0 mi WNW 23.0 mph - N/A   Clear
3:35 PM 53.8 °F - 10.6 °F 18% 29.71 in 10.0 mi West 18.4 mph - N/A   Clear
3:55 PM 53.4 °F - 9.9 °F 18% 29.71 in 10.0 mi WSW 15.0 mph 27.6 mph N/A   Clear
4:15 PM 53.1 °F - 8.2 °F 17% 29.71 in 10.0 mi WNW 16.1 mph - N/A   Clear
4:35 PM 53.4 °F - 8.8 °F 17% 29.72 in 10.0 mi WNW 9.2 mph 12.7 mph N/A   Clear
4:55 PM 50.4 °F - 8.2 °F 18% 29.72 in 10.0 mi NW 9.2 mph - N/A   Clear
5:15 PM 48.9 °F - 9.3 °F 20% 29.74 in 10.0 mi NW 9.2 mph - N/A   Clear
5:35 PM 48.2 °F - 9.5 °F 21% 29.74 in 10.0 mi NW 6.9 mph - N/A   Clear
5:55 PM 45.9 °F 44.6 °F 10.4 °F 24% 29.75 in 10.0 mi NW 3.5 mph - N/A   Clear
6:15 PM 45.0 °F - 10.9 °F 25% 29.76 in 10.0 mi Calm Calm - N/A   Clear
6:35 PM 46.4 °F - 10.2 °F 23% 29.77 in 10.0 mi Calm Calm - N/A   Clear
6:55 PM 44.2 °F 41.8 °F 11.3 °F 26% 29.78 in 10.0 mi West 4.6 mph - N/A   Clear
7:15 PM 41.5 °F - 12.4 °F 31% 29.78 in 10.0 mi Calm Calm - N/A   Clear
7:35 PM 40.3 °F - 12.2 °F 32% 29.79 in 10.0 mi Calm Calm - N/A   Clear
7:55 PM 37.2 °F - 11.7 °F 35% 29.81 in 10.0 mi Calm Calm - N/A   Clear
8:15 PM 35.6 °F 30.7 °F 12.0 °F 38% 29.82 in 10.0 mi West 5.8 mph - N/A   Clear
8:35 PM 35.6 °F 30.7 °F 10.9 °F 36% 29.84 in 10.0 mi NNW 5.8 mph - N/A   Clear
8:55 PM 32.2 °F 26.7 °F 12.0 °F 43% 29.86 in 10.0 mi WNW 5.8 mph - N/A   Clear
9:15 PM 32.2 °F 26.7 °F 12.0 °F 43% 29.86 in 10.0 mi NW 5.8 mph - N/A   Clear
9:35 PM 32.4 °F 25.3 °F 12.0 °F 43% 29.87 in 10.0 mi NW 8.1 mph - N/A   Clear
9:55 PM 30.2 °F 24.3 °F 12.0 °F 47% 29.88 in 10.0 mi WNW 5.8 mph - N/A   Clear
10:15 PM 28.4 °F 20.4 °F 12.6 °F 52% 29.88 in 10.0 mi West 8.1 mph - N/A   Clear
10:35 PM 27.5 °F 18.6 °F 13.3 °F 55% 29.89 in 10.0 mi West 9.2 mph - N/A   Clear
10:55 PM 27.3 °F 17.7 °F 13.3 °F 56% 29.90 in 10.0 mi West 10.4 mph - N/A   Clear
11:15 PM 27.7 °F 18.8 °F 12.7 °F 54% 29.90 in 10.0 mi West 9.2 mph - N/A   Clear
11:35 PM 27.5 °F 18.6 °F 12.9 °F 54% 29.91 in 10.0 mi West 9.2 mph - N/A   Clear
11:55 PM 27.5 °F 18.6 °F 12.7 °F 54% 29.91 in 10.0 mi West 9.2 mph - N/A   Clear